Reflectivity
17 20 22 31 20 24 22 -2 13 11 -6 9 15 14 14 0 -4 -20 -20 -20 -20 -20 -20 -20 -20 -20 -20 -20 -20 -20 -20 -20 -20 -20 -20 -20 -20 -20 -20 -20 -20 -20 -20 -20 -20 -20 -20 -20 -20 -20 -20 -20 -20 -20
16 19 26 33 22 22 25 -2 -2 7 -7 13 17 15 14 1 -10 -20 -20 -20 -20 -20 -20 -20 -20 -20 -20 -20 -20 -20 -20 -20 -20 -20 -20 -20 -20 -20 -20 -20 -20 -20 -20 -20 -20 -20 -20 -20 -20 -20 -20 -20 -20 -20
17 21 25 32 24 17 19 17 0 -20 -2 10 17 15 16 6 10 -1 -20 -20 -20 -20 -20 -20 -20 -20 -20 -20 -20 -20 -20 -20 -20 -20 -20 -20 -20 -20 -20 -20 -20 -20 -20 -20 -20 -20 -20 -20 -20 -20 -20 -20 -20 -20
17 22 19 26 25 22 5 26 -20 6 11 13 16 15 16 5 13 5 -20 -20 -20 -20 -20 -20 -20 -20 -20 -20 -20 -20 -20 -20 -20 -20 -20 -20 -20 -20 -20 -20 -20 -20 -20 -20 -20 -20 -20 -20 -20 -20 -20 -20 -20 -20
18 19 13 15 18 14 -3 24 -20 10 -4 14 18 15 16 5 14 12 -17 -20 -20 -20 -20 -20 -20 -20 -20 -20 -20 -20 -20 -20 -20 -20 -20 -20 -20 -20 -20 -20 -20 -20 -20 -20 -20 -20 -20 -20 -20 -20 -20 -20 -20 -20
18 21 21 12 20 4 13 11 -15 6 10 14 15 16 17 11 16 17 -14 -20 -20 -20 -20 -20 -20 -20 -20 -20 -20 -20 -20 -20 -20 -20 -20 -20 -20 -20 -20 -20 -20 -20 -20 -20 -20 -20 -20 -20 -20 -20 -20 -20 -20 -20
17 29 27 16 15 2 24 -7 -11 9 11 11 -9 12 14 11 6 -18 -19 -14 -20 -20 -20 -20 -20 -20 -20 -20 -20 -20 -20 -20 -20 -20 -20 -20 -20 -20 -20 -20 -20 -20 -20 -20 -20 -20 -20 -20 -20 -20 -20 -20 -20 -20
13 23 30 24 26 28 35 -0 0 11 11 -17 5 11 17 14 17 -14 -19 -16 -20 -20 -13 -20 -20 -20 -19 -20 -20 -5 -20 -20 -20 -20 -20 -20 -20 -13 -20 -20 -20 -20 -20 -20 -20 -20 -20 -20 -20 -20 -20 -20 -20 -20
9 22 28 24 34 35 36 33 10 11 -9 -1 6 15 5 -5 -15 -20 9 -17 -20 -20 -10 -10 -20 -20 -20 -20 -20 -20 -20 -20 -20 -20 -20 -20 -20 -20 -20 -20 -20 -20 -20 -20 -20 -20 -20 -20 -20 -20 -20 -20 -20 -20
8 26 29 34 35 39 36 36 31 6 -7 -7 -1 -17 -20 -20 -20 -11 -20 -20 -20 -20 -20 -20 -20 -19 -20 -11 -14 -20 -20 -20 -20 -20 -20 -20 -20 -20 -20 -20 -20 -20 -20 -20 -20 -20 -20 -20 -20 -20 -20 -20 -20 -20
8 29 31 35 35 34 39 39 35 25 22 12 -6 -20 -13 -18 -20 -20 -20 -20 -20 -20 -20 -20 -20 -20 -20 -20 -20 -20 -18 -19 -20 -20 -20 -20 -20 -20 -20 -20 -20 -20 -20 -20 -20 -20 -20 -20 -20 -20 -20 -20 -20 -20
11 25 30 33 35 32 33 37 38 33 28 10 -1 12 2 -19 -20 -20 -20 -20 -20 -20 -20 -20 -20 -20 -20 -20 -20 -20 -20 -20 -20 -20 -20 -20 -20 -20 -20 -20 -20 -20 -20 -20 -20 -20 -20 -20 -20 -20 -20 -20 -20 -20
13 20 30 33 35 31 36 38 39 39 29 12 29 30 14 15 12 -20 -20 -20 -20 -20 -5 -8 -20 -20 -20 -20 -20 -20 -20 -20 -20 -20 -20 -20 -20 -20 -20 -20 -20 -20 -20 -20 -20 -20 -20 -20 -20 -20 -20 -20 -20 -20
11 20 30 32 35 34 37 38 40 39 35 30 27 15 4 14 -20 -20 -20 -20 -20 -20 3 6 -19 -20 -20 -20 -20 -20 -20 -20 -20 -20 -20 -20 -20 -20 -20 -20 -20 -20 -20 -20 -20 -20 -20 -20 -20 -20 -20 -20 -20 -20
10 21 26 31 36 40 41 41 37 35 32 32 27 -5 -20 -20 -20 -20 -20 -20 -17 -16 -20 -20 -20 -20 -20 -20 -20 -20 -14 -20 -20 -20 -20 -20 -20 -20 -20 -20 -20 -20 -20 -20 -20 -20 -20 -20 -20 -20 -20 -20 -20 -20
7 18 28 29 31 37 38 35 32 31 32 29 14 -2 -20 -20 -20 -20 -20 -20 -20 -4 -20 -20 -20 -20 -20 -20 -20 -20 -20 -20 -20 -20 -20 -20 -20 -20 -20 -20 -20 -20 -20 -20 -20 -20 -20 -20 -20 -20 -20 -20 -20 -20
6 21 29 29 28 33 37 36 33 33 32 21 -3 -20 -20 -20 -20 -2 -12 -20 1 6 -14 -20 -20 -20 -20 -20 -20 -20 -20 -20 -20 -20 -20 -20 -20 -20 -20 -20 -20 -20 -20 -20 -20 -20 -20 -20 -20 -20 -20 -20 -20 -20
-14 2 22 26 27 30 31 33 31 27 22 15 -14 -20 -20 -20 -20 -20 -20 -9 11 4 -10 -19 -20 -20 -20 -20 -20 -20 -20 -20 -20 -20 -20 -20 -20 -20 -20 -20 -20 -20 -20 -20 -20 -20 -20 -20 -20 -20 -20 -20 -20 -20
-10 -7 6 8 20 27 21 26 27 19 14 -0 -19 -20 -20 -20 -20 -20 -20 -19 2 11 13 9 3 -16 -20 -20 -20 -20 -20 -20 -20 -20 -20 -20 -20 -20 -20 -20 -20 -20 -20 -20 -20 -20 -20 -20 -20 -20 -20 -20 -20 -20
15 21 3 -3 4 21 15 18 25 13 2 1 -20 -20 -20 -20 -20 -20 -3 -10 -10 5 12 8 -9 -20 -20 -20 -20 -20 -20 -20 -20 -20 -20 -20 -20 -20 -20 -20 -20 -20 -20 -20 -20 -20 -20 -20 -20 -20 -20 -20 -20 -20
-20 -1 -6 -19 13 27 21 11 15 15 10 3 3 -20 -17 -20 -20 -20 -18 -17 -13 -5 6 3 -20 -20 -20 -20 -20 -20 -20 -20 -20 -20 -20 -20 -20 -20 -20 -20 -20 -20 -20 -20 -20 -20 -20 -20 -20 -20 -20 -20 -20 -20
-16 -15 -19 -1 11 18 5 0 12 15 -1 6 11 4 -3 -10 -13 -4 8 8 6 1 10 7 -13 -20 -20 -20 -20 -20 -20 -20 -20 -20 -20 -20 -20 -20 -20 -20 -20 -20 -20 -20 -20 -20 -20 -20 -20 -20 -20 -20 -20 -20
-16 -20 -20 -20 2 -14 10 0 1 14 9 15 5 -5 7 12 17 18 19 18 10 14 15 10 -6 -20 -20 -20 -20 -20 -20 -20 -20 -20 -20 -20 -20 -20 -20 -20 -20 -20 -20 -20 -20 -20 -20 -20 -20 -20 -20 -20 -20 -20
-20 -20 -20 -20 -13 -5 -10 6 -20 4 12 7 11 6 -3 10 8 3 -0 -6 8 17 15 4 -11 -18 -20 -20 -20 -20 -20 -20 -20 -20 -20 -20 -20 -20 -20 -20 -20 -20 -20 -20 -20 -20 -20 -20 -20 -20 -20 -20 -20 -20
-20 -20 -20 -20 -20 -20 -4 6 -9 -14 -3 8 6 12 14 11 10 1 -13 -20 -17 -10 -14 -20 -20 -20 -20 -20 -20 -20 -20 -20 -20 -20 -20 -20 -20 -20 -20 -20 -20 -20 -20 -20 -20 -20 -20 -20 -20 -20 -20 -20 -20 -20
-20 -20 -20 -20 -20 -20 -20 5 8 -19 -18 -0 6 -3 0 3 0 0 -20 -20 -20 -20 -20 -20 -20 -20 -20 -20 -20 -20 -20 -20 -20 -20 -20 -20 -20 -20 -20 -20 -20 -20 -20 -20 -20 -20 -20 -20 -20 -20 -20 -20 -20 -20
-20 -20 -20 -20 -20 -20 -20 -20 -20 -20 -15 -20 -17 -10 -15 -19 -11 -20 -20 -20 -20 -20 -20 -20 -20 -20 -20 -20 -20 -20 -20 -20 -20 -20 -20 -20 -20 -20 -20 -20 -20 -20 -20 -20 -20 -20 -20 -20 -20 -20 -20 -20 -20 -20
-20 -20 -20 -20 -20 -20 -20 -20 -20 -20 -20 -20 -20 -20 -20 -20 -20 -20 -20 -20 -20 -20 -20 -20 -20 -20 -20 -20 -20 -20 -20 -20 -20 -20 -20 -20 -20 -20 -20 -20 -20 -20 -20 -20 -20 -20 -20 -20 -20 -20 -20 -20 -20 -20
-20 -20 -20 -20 -20 -20 -20 -20 -20 -20 -20 -20 -20 -20 -20 -20 -20 -20 -20 -20 -20 -20 -20 -20 -20 -20 -20 -20 -20 -20 -20 -20 -20 -20 -20 -20 -20 -20 -20 -20 -20 -20 -20 -20 -20 -20 -20 -20 -20 -20 -20 -20 -20 -20
-20 -20 -20 -20 -20 -20 -20 -20 -20 -20 -20 -20 -20 -20 -20 -20 -20 -20 -20 -20 -20 -20 -20 -20 -20 -20 -20 -20 -20 -20 -20 -20 -20 -20 -20 -20 -20 -20 -20 -20 -20 -20 -20 -20 -20 -20 -20 -20 -20 -20 -20 -20 -20 -20
-20 -20 -20 -20 -20 -20 -20 -20 -20 -20 -20 -20 -20 -20 -20 -20 -20 -20 -20 -20 -20 -20 -20 -20 -20 -20 -20 -20 -20 -20 -20 -20 -20 -20 -20 -20 -20 -20 -20 -20 -20 -20 -20 -20 -20 -20 -20 -20 -20 -20 -20 -20 -20 -20
-20 -20 -20 -20 -20 -20 -20 -20 -20 -20 -20 -20 -20 -20 -20 -20 -20 -20 -20 -20 -20 -20 -20 -20 -20 -20 -20 -20 -20 -20 -20 -20 -20 -20 -20 -20 -20 -20 -20 -20 -20 -20 -20 -20 -20 -20 -20 -20 -20 -20 -20 -20 -20 -20
-20 -20 -20 -20 -20 -20 -20 -20 -20 -20 -20 -20 -20 -20 -20 -20 -20 -20 -20 -20 -20 -20 -20 -20 -20 -20 -20 -20 -20 -20 -20 -20 -20 -19 -16 -19 -20 -20 -20 -20 -20 -20 -20 -20 -20 -20 -20 -20 -20 -20 -20 -20 -20 -20
Wind_Speed
28 29 28 24 21 22 19 16 15 13 11 11 11 9 8 7 5 3 1 2 2 4 1 3 3 4 3 2 5 6 5 1 3 3 3 3 3 4 3 3 5 6 7 4 3 2 7 2 4 6 4 3 6 5
29 30 27 25 24 24 19 15 15 13 12 12 11 10 9 8 6 4 1 0 0 5 3 1 2 1 2 2 6 2 1 3 5 6 1 3 3 2 3 3 3 1 5 5 7 5 0 1 2 4 4 6 5 5
29 30 29 26 27 26 25 18 17 14 13 13 12 11 9 7 7 5 2 1 2 4 3 3 3 4 4 3 2 5 2 3 1 2 5 3 3 4 5 4 2 1 2 3 3 2 2 4 4 4 4 5 4 3
30 31 32 30 28 25 24 19 17 16 15 14 13 11 9 8 7 4 2 1 2 3 5 1 2 4 7 5 0 1 6 5 5 3 3 3 3 2 3 2 3 3 4 4 1 2 2 1 2 6 5 5 5 4
30 32 35 34 35 24 21 21 19 17 15 14 12 11 9 9 6 4 3 1 1 2 4 2 1 5 5 5 8 6 6 5 3 3 3 2 2 4 2 2 2 4 6 5 6 7 5 4 5 4 6 5 6 3
30 33 36 36 33 20 22 22 20 17 16 14 12 10 9 9 7 0 2 0 2 1 5 3 2 4 6 6 9 8 4 4 3 4 2 2 1 3 4 4 4 4 3 2 2 4 3 7 7 3 6 5 3 4
30 32 36 36 34 20 23 23 22 19 17 15 13 10 9 9 3 2 3 1 2 1 4 4 2 3 3 4 3 3 4 3 3 2 2 3 2 3 3 4 3 4 7 5 6 8 5 2 5 5 6 5 3 1
30 31 34 37 34 22 23 24 23 20 19 17 14 11 14 18 10 2 3 3 1 4 3 5 2 1 3 2 2 3 2 2 4 2 1 1 1 2 3 4 3 4 6 7 6 6 5 8 6 4 3 3 1 1
28 29 32 36 33 20 24 25 24 22 21 19 18 19 5 3 3 2 2 4 2 3 5 3 6 4 1 2 2 2 2 3 1 1 1 1 1 5 5 5 6 6 6 9 6 6 5 4 5 4 3 2 3 3
25 27 29 35 33 9 25 25 24 24 25 25 5 3 2 0 5 3 6 3 5 3 4 3 2 4 2 1 2 2 2 2 2 0 1 2 4 2 5 5 7 8 8 11 7 2 2 2 3 4 4 2 4 4
23 26 27 31 30 27 23 25 24 28 25 3 4 3 1 2 3 4 2 3 0 2 2 3 3 6 2 3 3 1 2 1 3 3 2 3 4 4 2 4 4 6 8 4 5 6 6 6 4 2 2 3 4 4
21 23 23 27 28 30 20 24 24 11 4 8 9 6 3 3 3 5 3 1 3 7 2 5 4 4 2 2 4 2 3 3 2 1 1 4 5 2 2 3 4 7 8 7 5 8 6 5 5 3 2 3 4 4
19 20 21 23 26 27 16 26 16 21 19 5 5 4 4 1 4 9 10 5 3 5 5 5 6 5 3 3 4 3 3 4 2 1 4 6 3 3 4 4 6 6 7 7 6 4 4 3 3 3 3 4 3 3
17 17 21 19 23 26 6 25 25 9 5 4 5 7 5 5 6 6 6 5 4 5 10 8 4 4 3 4 3 4 1 3 4 4 9 4 7 7 7 4 6 7 7 7 6 4 3 3 3 4 5 3 3 4
15 14 15 11 19 18 21 8 16 5 3 3 4 6 5 3 2 2 4 3 1 9 8 6 4 4 3 4 2 4 5 5 7 8 5 4 7 8 7 5 6 7 7 5 4 4 5 4 3 4 4 4 5 3
12 7 6 16 14 16 14 11 6 3 2 2 3 4 4 5 3 4 3 4 0 8 3 4 4 4 2 5 4 7 8 8 6 5 4 5 7 7 7 6 6 4 4 3 3 3 4 5 5 4 2 2 3 3
5 1 11 8 11 11 10 3 2 3 2 3 1 2 4 2 4 3 4 4 2 7 3 3 5 5 3 3 3 4 7 5 4 3 2 4 10 7 6 5 5 5 4 4 3 4 2 2 2 1 3 2 2 3
1 3 9 11 9 3 3 3 2 2 2 2 3 3 2 2 6 5 3 4 4 3 3 3 5 3 5 6 4 5 3 2 2 3 3 3 4 4 4 3 1 0 2 2 1 3 3 3 2 1 1 1 4 4
2 1 8 12 8 2 3 3 2 2 3 2 3 2 2 3 2 5 4 4 5 4 6 2 3 3 3 3 3 2 2 2 4 3 3 3 3 3 3 3 3 2 1 1 2 1 2 2 2 1 2 3 4 3
6 7 9 9 5 2 2 2 1 1 1 1 2 3 2 3 2 6 6 3 3 4 3 2 1 3 3 1 2 3 2 2 4 4 3 3 3 3 2 1 2 1 3 3 2 4 3 4 3 4 3 3 4 4
7 4 7 5 2 2 2 2 2 2 1 2 1 2 3 2 4 5 4 1 3 2 3 2 3 2 3 3 3 3 4 3 2 3 3 1 2 3 2 2 1 2 2 2 3 2 4 4 3 3 4 4 4 3
1 6 2 3 2 3 2 3 2 2 2 1 2 2 3 2 3 2 3 3 2 2 3 3 2 2 2 4 4 5 4 5 5 3 4 3 2 1 1 1 2 2 3 1 2 4 4 3 4 4 4 3 4 2
3 3 2 4 3 4 2 2 3 4 2 2 1 3 3 2 1 1 3 2 3 3 2 3 2 1 6 5 6 6 6 4 4 3 3 3 4 2 2 2 2 4 3 3 2 5 5 7 7 5 3 3 2 3
5 4 4 3 4 3 3 4 2 2 3 3 3 3 3 2 3 3 2 2 2 1 2 2 2 4 3 5 4 3 4 3 4 4 3 4 3 3 3 3 3 3 3 4 5 5 4 4 7 4 3 3 3 2
7 7 5 5 4 3 4 3 3 3 3 3 2 2 2 2 2 2 2 1 2 2 3 4 4 4 4 3 3 3 5 3 3 4 2 2 5 4 4 4 4 4 2 6 5 5 4 3 3 3 3 1 2 2
4 3 4 3 3 3 1 2 3 3 2 3 3 1 1 2 3 1 1 1 2 1 0 1 2 3 4 2 3 2 1 2 1 3 2 2 3 4 4 4 3 2 3 3 6 5 4 3 3 3 2 3 7 4
1 3 1 1 2 3 3 3 3 2 2 2 2 1 2 3 2 1 0 2 2 1 1 1 1 2 3 3 3 3 3 3 4 4 4 4 4 3 3 4 4 2 2 4 4 4 4 3 2 1 0 1 2 3
3 4 5 3 2 1 4 2 2 3 2 2 3 1 5 5 2 2 2 2 2 2 2 2 2 2 2 2 2 4 4 4 5 6 7 7 6 5 5 5 6 13 5 5 4 3 3 3 2 1 0 2 3 3
2 2 4 4 1 1 3 5 5 3 1 3 4 3 3 2 1 1 2 1 0 2 2 3 2 2 3 4 4 4 3 2 4 4 6 3 2 2 3 4 4 3 3 4 6 3 5 3 2 1 1 2 3 4
3 2 4 3 5 5 4 3 2 2 1 3 3 3 2 2 1 1 1 2 1 2 2 2 3 3 2 3 3 4 3 2 1 4 4 3 4 4 3 3 4 3 3 3 3 3 5 5 4 4 3 3 3 3
2 3 4 2 4 3 2 2 3 3 3 3 3 4 2 2 1 1 2 1 1 2 3 3 2 1 4 3 3 3 2 3 1 3 4 5 6 5 4 3 3 2 2 3 3 2 2 2 1 2 3 5 7 8
3 4 4 3 2 3 1 2 1 3 3 3 3 2 2 3 2 3 3 2 2 2 1 4 4 2 2 2 1 1 7 2 2 3 6 5 5 4 4 3 2 2 3 3 2 1 0 1 2 3 5 6 7 8
2 3 2 3 2 1 1 4 4 2 4 3 2 1 0 1 2 1 1 1 1 2 2 2 3 3 5 5 5 5 5 1 1 6 11 12 12 9 4 2 2 2 2 0 0 1 2 2 3 4 6 6 8 9
Wind_Direction
330 325 324 325 291 291 269 201 194 194 201 208 210 200 212 220 202 171 193 203 146 103 355 28 0 127 92 106 143 177 97 306 51 82 130 180 134 204 97 155 178 157 133 170 115 149 267 166 69 161 169 68 128 127
328 327 323 325 317 302 288 193 195 189 194 198 201 197 201 214 210 177 155 195 231 83 146 19 70 45 55 143 127 20 155 156 168 93 82 112 116 117 148 211 20 199 165 181 173 214 240 10 137 107 122 132 169 163
328 325 323 321 314 309 300 193 193 186 189 189 195 197 193 203 205 196 154 151 72 103 34 53 2 335 38 11 210 118 279 157 108 134 151 138 124 133 156 224 129 276 146 125 115 220 117 97 82 119 131 134 131 91
330 327 326 319 312 294 285 188 188 180 183 185 190 184 189 187 181 167 129 127 95 113 112 92 343 22 319 346 83 120 130 85 101 78 91 121 123 189 183 145 149 191 131 143 108 85 75 272 153 148 117 95 95 76
330 329 328 320 310 270 256 181 178 172 177 180 178 173 188 179 164 115 104 62 74 116 121 108 117 360 346 44 55 56 90 96 90 70 70 125 106 114 41 74 262 189 179 164 214 186 151 184 164 121 110 92 68 66
332 333 329 323 316 242 204 175 169 166 168 161 162 177 185 164 150 128 100 65 22 80 103 115 344 22 14 54 60 47 33 61 78 106 124 119 139 110 131 192 234 196 168 197 185 131 79 105 88 54 108 109 85 96
335 333 331 334 327 222 180 170 161 162 160 156 161 174 165 127 78 84 187 150 314 96 94 98 80 3 353 27 37 28 33 58 80 97 62 127 130 106 124 189 227 199 169 144 127 112 66 146 153 97 115 140 125 95
335 336 335 335 328 187 170 163 159 161 158 157 156 144 111 102 107 36 331 347 342 96 79 107 92 83 4 61 84 348 58 50 28 108 123 117 117 73 233 225 174 103 108 91 79 65 106 114 111 122 118 122 116 283
336 339 337 337 337 188 165 162 159 158 155 147 131 123 103 59 107 188 242 345 34 87 116 109 147 188 21 82 81 56 5 77 324 92 80 79 101 225 204 159 160 171 164 153 99 87 81 109 154 154 156 236 230 264
340 340 341 340 340 269 158 157 163 154 143 136 124 77 87 98 101 47 8 29 22 351 50 105 110 130 106 105 70 100 20 90 126 182 3 202 247 253 207 177 141 165 149 143 124 149 148 90 161 164 199 228 227 233
341 339 341 343 341 338 157 158 164 146 142 121 112 102 79 71 68 43 72 98 94 25 150 147 140 123 351 120 124 13 163 47 108 259 186 268 270 246 231 252 191 149 146 151 123 125 126 119 136 170 252 231 233 232
340 337 344 346 343 336 166 158 166 154 135 141 116 107 114 70 58 104 169 76 180 213 199 140 149 119 108 91 92 339 108 50 214 143 168 269 251 247 101 127 145 155 153 143 138 128 129 144 171 186 227 261 255 243
337 337 343 350 344 341 189 162 163 125 121 78 63 88 128 116 151 176 180 198 197 170 180 155 123 121 110 66 76 92 115 204 105 143 239 226 246 227 174 127 116 130 135 128 121 125 150 158 158 172 246 246 241 235
334 340 343 352 348 354 306 139 135 109 68 92 137 131 185 183 213 181 183 175 209 134 141 134 105 120 122 101 137 143 105 136 176 217 231 231 201 178 172 163 136 161 156 155 164 168 196 229 264 253 235 235 221 230
334 346 347 341 349 22 9 70 109 58 60 119 140 173 174 142 94 192 175 135 157 146 134 112 71 86 87 115 143 118 164 214 214 225 229 206 175 154 160 165 167 163 170 180 178 191 210 214 236 273 252 231 216 204
339 0 343 355 1 11 20 7 47 79 68 117 96 99 107 75 132 158 144 141 231 136 84 58 109 83 156 137 157 203 159 219 243 216 226 131 143 158 164 170 167 149 158 186 199 207 202 200 220 251 293 257 232 203
1 25 341 37 18 4 18 48 31 77 135 124 126 81 105 118 136 134 151 136 127 150 97 116 103 172 106 126 207 197 203 222 216 224 164 152 161 170 149 139 141 158 187 205 198 192 181 108 113 83 310 307 221 189
328 329 11 19 4 7 6 19 48 76 117 106 140 139 141 99 125 138 127 142 118 99 113 156 122 136 174 173 225 233 219 258 245 109 125 99 100 129 174 155 178 255 306 356 104 138 111 95 79 301 257 144 98 96
284 317 43 31 12 4 353 22 17 58 48 86 94 90 97 103 59 111 98 70 88 103 109 63 103 174 217 217 199 239 237 198 115 91 87 96 122 81 40 20 11 5 28 145 174 144 91 120 97 93 106 113 98 98
44 61 43 22 25 351 335 35 354 58 73 87 90 82 64 74 106 112 101 74 96 98 79 104 150 183 153 224 192 136 130 112 86 64 23 359 11 39 347 268 268 327 113 93 61 96 73 75 54 74 93 101 107 93
41 14 18 10 19 8 354 16 31 30 55 69 81 91 79 55 111 130 114 182 70 114 117 180 152 144 72 92 93 97 95 89 115 139 155 157 360 56 25 13 140 146 122 128 127 95 88 89 100 79 81 77 76 82
1 26 3 5 6 346 48 16 13 2 42 71 65 52 96 99 112 104 125 83 112 111 103 144 161 145 101 91 73 58 86 94 87 78 73 110 123 38 314 196 127 102 72 105 113 116 101 100 90 84 89 74 62 30
72 5 14 24 0 26 359 347 50 1 51 52 49 66 39 56 51 154 83 83 92 42 65 70 61 19 110 102 88 61 49 82 98 89 69 85 87 79 87 81 84 117 99 25 90 111 114 109 99 91 78 64 50 34
29 46 38 58 22 10 349 19 18 30 28 29 51 66 35 26 359 44 65 70 87 87 67 79 165 104 57 50 59 45 24 52 86 65 53 103 100 60 59 64 65 59 86 110 91 88 82 85 100 88 71 69 35 16
67 329 74 344 332 57 23 13 10 31 76 41 70 54 27 335 79 87 145 341 43 28 13 5 33 45 100 76 97 86 24 39 109 116 23 50 109 94 63 62 59 48 56 105 103 106 100 93 87 86 68 42 357 6
73 290 108 199 298 85 21 48 21 37 49 70 58 53 330 82 80 194 172 98 93 108 30 96 115 76 65 63 126 124 26 346 349 97 45 34 104 134 140 125 105 33 15 108 122 121 116 112 97 86 53 6 358 9
96 276 271 76 114 97 45 15 19 87 93 128 155 100 69 94 203 172 158 30 78 53 37 39 69 102 123 112 98 70 50 40 73 99 86 57 41 59 119 140 145 144 110 102 106 119 129 124 118 114 343 306 251 262
188 180 160 188 65 28 128 64 128 185 209 205 106 135 160 176 187 115 76 44 59 63 52 24 36 64 89 82 66 95 77 67 81 87 88 58 43 39 59 85 110 120 109 108 106 105 110 143 164 199 312 313 294 280
192 195 105 156 65 3 202 172 210 232 137 140 143 188 217 48 35 66 80 75 116 158 131 124 60 44 72 71 61 64 76 84 92 97 103 110 81 28 4 75 75 68 60 54 79 99 154 143 189 125 145 282 276 275
224 142 99 141 166 208 242 175 216 228 84 108 111 86 68 53 47 350 5 36 122 161 176 149 127 104 133 115 106 66 21 34 84 135 146 170 173 144 123 103 97 85 75 77 69 21 49 46 29 23 2 319 313 302
106 91 72 111 210 264 244 322 1 49 42 54 4 98 143 208 340 53 71 43 105 108 108 107 91 132 130 128 121 111 50 333 56 128 115 109 122 123 118 108 109 119 104 99 87 79 52 34 4 318 334 337 321 340
184 187 137 149 269 298 0 58 48 62 3 52 3 54 28 48 17 326 338 35 50 78 160 140 124 155 163 131 116 157 112 121 81 91 108 117 118 124 127 126 122 110 101 94 90 92 121 307 322 335 320 314 320 318
66 75 78 109 67 357 296 90 34 40 30 45 9 12 114 77 207 260 312 27 175 159 112 103 94 83 81 76 76 91 85 7 168 174 151 143 143 140 124 121 124 119 112 108 337 292 319 327 304 310 314 314 305 299